Location: Trout Lake
(45.9980°N, 121.5270°W)
Time: 14:45:40
(UTC-07:00)

ATLAS 2AS CENTAUR R/B - Pass Details

Date: 06 December 2023
Orbit: 1023 x 1188 km, 63.7° (Epoch: 12 September)

Event Time Altitude Azimuth Distance (km) Brightness Sun altitude
Rises 17:01:59 0° 320° (NW) 3,948 5.9 -7.0°
Reaches altitude 10° 17:05:00 10° 329° (NNW) 2,960 5.1 -7.5°
Maximum altitude 17:11:19 35° 34° (NE) 1,668 3.3 -8.5°
Drops below altitude 10° 17:17:24 10° 98° (E) 2,852 4.4 -9.5°
Enters shadow 17:19:07 - 105° (ESE) 3,407 4.9 -9.8°
